Regional Weather Roundup
Issued by NWS Kansas City/Pleasant Hill, MO

Home | Current Version | Previous Version | Graphics & Text | Print | Product List | Glossary Off
Versions: 1 2 3 4 5 6 7 8 9 10 11 12 13 14 15 16 17 18 19 20 21 22 23 24 25 26 27 28 29 30 31 32 33 34 35 36 37 38 39 40 41 42 43 44 45 46 47 48 49 50

000
ASUS43 KEAX 282304
RWREAX

WEATHER ROUNDUP FOR EASTERN KANSAS AND NORTHWEST MISSOURI
NATIONAL WEATHER SERVICE KANSAS CITY/PLEASANT HILL MO
600 PM CDT MON JUL 28 2014

KSZ040-057-103>105-MOZ028-029-037-043-290000-
...KANSAS CITY METROPOLITAN AREA...

CITY           SKY/WX    TMP DP  RH WIND       PRES   REMARKS
K.C. INTL      PTSUNNY   76  60  57 N10       30.17F
K.C. DOWNTOWN  MOSUNNY   81  59  47 N10       30.15F
LEES SUMMIT    MOSUNNY   80  56  43 N12       30.17F
OLATHE - IXD   SUNNY     80  56  43 N14       30.17F
OLATHE - OJC   MOSUNNY   79  57  46 N9        30.16F
LAWRENCE       MOSUNNY   82  59  45 N13       30.16F

$$

MOZ001>008-011>017-020>025-030>033-038>040-044>046-053-054-290000-
...NORTHERN AND CENTRAL MISSOURI...

CITY           SKY/WX    TMP DP  RH WIND       PRES   REMARKS
ST. JOSEPH     MOSUNNY   77  61  57 N9        30.17F
MOSBY          PTCLDY    77  55  47 NW8       30.15F
WHITEMAN AFB   MOSUNNY   78  50  37 N10       30.14F
CLINTON        SUNNY     79  63  57 N7        30.14F
SEDALIA        PTSUNNY   77  59  53 N12       30.15F
WARSAW         NOT AVBL
MARSHALL       SUNNY     79  59  50 N8        30.16S
CHILLICOTHE      N/A     78  55  44 N7        30.16F
KIRKSVILLE     SUNNY     75  54  47 N10       30.17F

$$

MOZ041-047>049-056>058-063>065-088>090-097-290000-
...EASTERN AND SOUTHERN MISSOURI...

CITY           SKY/WX    TMP DP  RH WIND       PRES   REMARKS
ST. LOUIS INTL PTSUNNY   75  56  51 N14G20    30.11R
SPIRIT OF STL  PTSUNNY   76  55  48 N15       30.10S
COLUMBIA       MOSUNNY   76  56  49 N15       30.14S
JEFFERSON CITY MOSUNNY   77  57  50 N9        30.11F
HANNIBAL       SUNNY     75  52  43 N7        30.14F
ROLLA          CLOUDY    76  56  49 N13G21    30.11S
LEBANON        SUNNY     79  55  44 N12G17    30.13S
OSAGE BEACH    MOSUNNY   81  55  41 N9G16     30.12S
SPRINGFIELD    MOSUNNY   81  56  42 N14       30.13F
BRANSON        MOSUNNY   84  55  37 N13G21    30.12F
NEVADA         MOSUNNY   81  59  47 N7        30.15F
JOPLIN         SUNNY     84  55  36 N9        30.13F
WEST PLAINS    MOSUNNY   83  56  39 N8G17     30.10F
MALDEN         SUNNY     84  63  48 N9        30.03F

$$

IAZ060-094-KSZ022-034>040-054-083-096-NEZ052-066-093-290000-
...KANSAS...SOUTHEAST NEBRASKA AND IOWA...

CITY           SKY/WX    TMP DP  RH WIND       PRES   REMARKS
TOPEKA         SUNNY     84  57  39 NE8       30.16F
MANHATTAN      SUNNY     84  54  35 NE10      30.17F
EMPORIA        SUNNY     85  51  31 N9        30.16F
CHANUTE        SUNNY     84  57  39 N10       30.15F
WICHITA        MOSUNNY   87  57  35 N12       30.17F
OMAHA          MOSUNNY   77  54  44 NW10      30.19F
LINCOLN        MOSUNNY   80  52  37 N13       30.22F
FALLS CITY     SUNNY     77  55  46 N6        30.18F
LAMONI         MOSUNNY   74  56  53 NW7       30.17F
DES MOINES     PTSUNNY   73  59  61 W14       30.16F

$$




USA.gov is the U.S. government's official web portal to all federal, state and local government web resources and services.